Date String (YYYY-MM-DD hh:mm:ss) UTC,Instrument flags,absolute air pressure of the measurement (hPa),sample flow rate (lpm),inlet stack bypass flow (lpm),air temperature of the measurement (°C),ambient temperature measured by the external sensor (°C),aerosol sample conditioner tube jacket temperature (°C),OPC LED temperature (°C),internal box temperature (°C),relative humidity of the measurement (%),span deviation,mass concentration of particles derived from Lorenz-Mie calculation of OPC scattering (μg/m³),mass concentration of particles derived from Lorenz-Mie calculation of OPC scattering (μg/m³),mass concentration of particles derived from Lorenz-Mie calculation of OPC scattering (μg/m³)
DateTimeUTC,F1_M11,P_M11,Q1_M11,Q2_M11,T1_M11,T2_M11,T3_M11,T4_M11,T5_M11,U1_M11,ZSPAN_M11,X0_M11,X2_M11,X1_M11
2023-12-08 11:00:00,SystemResetWarning,0820.8,5.00,000.00,021.7,020.8,000.0,030.0,023.0,13.8,0000.0,0007.09,0001.95,0001.20
2023-12-08 11:01:00,SystemResetWarning,0820.8,5.00,000.00,021.7,020.8,000.0,030.0,023.1,13.8,0000.0,0007.22,0001.96,0001.22
2023-12-08 11:02:00,SystemResetWarning,0820.8,4.99,000.00,021.7,020.8,000.0,030.0,023.1,13.7,0000.0,0007.33,0001.94,0001.22
2023-12-08 11:03:00,SystemResetWarning,0820.7,4.99,000.00,021.7,020.8,000.0,030.0,023.0,13.7,0000.0,0006.06,0001.94,0001.22
2023-12-08 11:04:00,SystemResetWarning,0820.7,5.00,000.00,021.7,020.8,000.0,030.0,023.1,13.6,0000.0,0006.51,0001.93,0001.22
2023-12-08 11:05:00,SystemResetWarning,0820.6,5.00,000.00,021.7,020.8,000.0,030.0,023.0,13.6,0000.0,0006.50,0001.90,0001.22
2023-12-08 11:06:00,SystemResetWarning,0820.7,5.01,000.00,021.7,020.8,000.0,030.0,023.0,13.6,0000.0,0006.36,0001.88,0001.22
2023-12-08 11:07:00,SystemResetWarning,0820.5,5.00,000.00,021.7,020.8,000.0,030.0,023.0,13.5,0000.0,0006.52,0001.95,0001.24
2023-12-08 11:08:00,SystemResetWarning,0820.6,4.99,000.00,021.7,020.8,000.0,030.0,023.1,13.4,0000.0,0006.61,0001.95,0001.24
2023-12-08 11:09:00,SystemResetWarning,0820.6,5.00,000.00,021.7,020.8,000.0,030.0,023.1,13.4,0000.0,0008.22,0002.01,0001.26
2023-12-08 11:10:00,SystemResetWarning,0820.8,5.01,000.00,021.7,020.8,000.0,030.0,023.0,13.4,0000.0,0007.55,0002.02,0001.28
2023-12-08 11:11:00,SystemResetWarning,0820.9,5.01,000.00,021.7,020.8,000.0,030.0,023.0,13.4,0000.0,0007.25,0001.94,0001.26
2023-12-08 11:12:00,SystemResetWarning,0820.8,4.99,000.00,021.7,020.8,000.0,030.0,022.9,13.4,0000.0,0007.14,0001.94,0001.25
2023-12-08 11:13:00,SystemResetWarning,0820.8,4.99,000.00,021.7,020.8,000.0,030.0,023.0,13.5,0000.0,0006.96,0001.95,0001.24
2023-12-08 11:14:00,SystemResetWarning,0820.7,5.00,000.00,021.7,020.8,000.0,030.0,023.0,13.4,0000.0,0006.86,0001.92,0001.25
2023-12-08 11:15:00,SystemResetWarning,0820.7,5.01,000.00,021.7,020.8,000.0,030.0,023.0,13.4,0000.0,0006.60,0001.95,0001.25
2023-12-08 11:16:00,SystemResetWarning,0820.8,5.01,000.00,021.7,020.8,000.0,030.0,023.0,13.4,0000.0,0006.58,0001.96,0001.26
2023-12-08 11:17:00,SystemResetWarning,0820.8,4.99,000.00,021.7,020.8,000.0,030.0,022.9,13.3,0000.0,0006.66,0002.00,0001.26
2023-12-08 11:18:00,SystemResetWarning,0820.8,4.99,000.00,021.7,020.7,000.0,030.0,022.9,13.3,0000.0,0007.37,0002.04,0001.25
2023-12-08 11:19:00,SystemResetWarning,0820.8,5.00,000.00,021.7,020.7,000.0,030.0,022.9,13.5,0000.0,0007.73,0002.02,0001.25
2023-12-08 11:20:00,SystemResetWarning,0820.8,5.01,000.00,021.7,020.7,000.0,030.0,023.0,13.3,0000.0,0006.65,0002.06,0001.25
2023-12-08 11:21:00,SystemResetWarning,0820.7,5.01,000.00,021.7,020.7,000.0,030.0,023.0,13.2,0000.0,0005.96,0002.08,0001.24
2023-12-08 11:22:00,SystemResetWarning,0820.7,5.01,000.00,021.7,020.7,000.0,030.0,023.0,13.2,0000.0,0006.11,0002.14,0001.25
2023-12-08 11:23:00,SystemResetWarning,0820.7,5.00,000.00,021.7,020.7,000.0,030.0,023.0,13.2,0000.0,0006.17,0002.13,0001.25
2023-12-08 11:24:00,SystemResetWarning,0820.8,4.98,000.00,021.7,020.7,000.0,030.0,023.0,13.3,0000.0,0007.32,0002.18,0001.25
2023-12-08 11:25:00,SystemResetWarning,0820.8,4.99,000.00,021.7,020.7,000.0,030.0,023.0,13.2,0000.0,0007.38,0002.20,0001.24
2023-12-08 11:26:00,SystemResetWarning,0820.7,5.01,000.00,021.7,020.7,000.0,030.0,023.0,13.2,0000.0,0007.15,0002.16,0001.24
2023-12-08 11:27:00,SystemResetWarning,0820.8,5.01,000.00,021.7,020.7,000.0,030.0,023.0,13.2,0000.0,0006.94,0002.13,0001.24
2023-12-08 11:28:00,SystemResetWarning,0820.8,5.01,000.00,021.7,020.7,000.0,030.0,023.0,13.2,0000.0,0007.20,0002.09,0001.24
2023-12-08 11:29:00,SystemResetWarning,0820.8,4.99,000.00,021.7,020.7,000.0,030.0,022.9,13.2,0000.0,0006.40,0002.00,0001.24
2023-12-08 11:30:00,SystemResetWarning,0820.8,4.99,000.00,021.7,020.7,000.0,030.0,023.0,13.2,0000.0,0006.45,0002.03,0001.24
2023-12-08 11:31:00,SystemResetWarning,0820.8,5.00,000.00,021.7,020.7,000.0,030.0,023.0,13.1,0000.0,0006.17,0001.96,0001.25
2023-12-08 11:32:00,SystemResetWarning,0820.9,5.01,000.00,021.6,020.7,000.0,030.0,022.9,13.2,0000.0,0006.01,0001.91,0001.23
2023-12-08 11:33:00,SystemResetWarning,0821.0,5.01,000.00,021.6,020.7,000.0,030.0,022.9,13.2,0000.0,0005.73,0001.84,0001.23
2023-12-08 11:34:00,SystemResetWarning,0820.9,5.00,000.00,021.6,020.7,000.0,030.0,022.9,13.3,0000.0,0005.59,0001.84,0001.24
2023-12-08 11:35:00,SystemResetWarning,0821.0,4.99,000.00,021.6,020.7,000.0,030.0,022.9,13.2,0000.0,0004.34,0001.78,0001.25
2023-12-08 11:36:00,SystemResetWarning,0821.0,4.99,000.00,021.6,020.7,000.0,030.0,022.9,13.2,0000.0,0004.65,0001.78,0001.26
2023-12-08 11:37:00,SystemResetWarning,0821.0,5.01,000.00,021.6,020.7,000.0,030.0,022.9,13.2,0000.0,0006.20,0001.82,0001.26
2023-12-08 11:38:00,SystemResetWarning,0821.1,5.01,000.00,021.6,020.7,000.0,030.0,022.9,13.2,0000.0,0006.60,0001.81,0001.25
2023-12-08 11:39:00,SystemResetWarning,0821.1,5.01,000.00,021.6,020.7,000.0,030.0,022.9,13.2,0000.0,0007.40,0001.82,0001.25
2023-12-08 11:40:00,SystemResetWarning,0821.1,5.01,000.00,021.6,020.7,000.0,030.0,022.9,13.2,0000.0,0007.52,0001.83,0001.24
2023-12-08 11:41:00,SystemResetWarning,0820.9,4.99,000.00,021.6,020.7,000.0,029.9,022.9,13.2,0000.0,0006.95,0001.76,0001.22
2023-12-08 11:42:00,SystemResetWarning,0821.0,4.99,000.00,021.6,020.7,000.0,029.9,022.9,13.2,0000.0,0007.21,0001.76,0001.20
2023-12-08 11:43:00,SystemResetWarning,0821.2,5.01,000.00,021.6,020.7,000.0,029.9,022.9,13.2,0000.0,0007.21,0001.74,0001.20
2023-12-08 11:44:00,SystemResetWarning,0821.3,5.01,000.00,021.6,020.7,000.0,029.9,022.9,13.3,0000.0,0007.39,0001.80,0001.20
2023-12-08 11:45:00,SystemResetWarning,0821.1,4.99,000.00,021.6,020.6,000.0,029.9,022.9,13.3,0000.0,0007.78,0001.84,0001.20
2023-12-08 11:46:00,SystemResetWarning,0821.2,4.99,000.00,021.6,020.6,000.0,029.9,022.9,13.1,0000.0,0008.03,0001.89,0001.19
2023-12-08 11:47:00,SystemResetWarning,0821.1,5.00,000.00,021.6,020.6,000.0,029.9,022.9,13.0,0000.0,0007.93,0001.88,0001.18
2023-12-08 11:48:00,SystemResetWarning,0821.1,5.00,000.00,021.6,020.6,000.0,029.9,022.9,12.9,0000.0,0007.26,0001.85,0001.16
2023-12-08 11:49:00,SystemResetWarning,0821.2,5.00,000.00,021.6,020.6,000.0,029.9,022.9,12.6,0000.0,0006.93,0001.86,0001.16
2023-12-08 11:50:00,SystemResetWarning,0821.3,5.00,000.00,021.6,020.5,000.0,029.9,022.8,11.9,0000.0,0005.89,0001.86,0001.17
2023-12-08 11:51:00,SystemResetWarning,0821.2,5.00,000.00,021.6,020.5,000.0,029.9,022.8,12.0,0000.0,0005.57,0001.85,0001.18
2023-12-08 11:52:00,SystemResetWarning,0821.2,5.00,000.00,021.5,020.5,000.0,029.9,022.8,12.2,0000.0,0005.44,0001.84,0001.19
2023-12-08 11:53:00,SystemResetWarning,0821.3,5.00,000.00,021.5,020.5,000.0,029.9,022.8,12.4,0000.0,0005.18,0001.82,0001.19
2023-12-08 11:54:00,SystemResetWarning,0821.3,5.00,000.00,021.5,020.5,000.0,029.9,022.8,12.4,0000.0,0005.06,0001.80,0001.18
2023-12-08 11:55:00,SystemResetWarning,0821.3,5.00,000.00,021.5,020.5,000.0,029.9,022.8,12.0,0000.0,0005.13,0001.80,0001.19
2023-12-08 11:56:00,SystemResetWarning,0821.3,5.00,000.00,021.5,020.5,000.0,029.9,022.8,10.7,0000.0,0005.04,0001.77,0001.18
2023-12-08 11:57:00,SystemResetWarning,0821.3,4.99,000.00,021.5,020.5,000.0,029.9,022.7,10.1,0000.0,0004.67,0001.75,0001.18
2023-12-08 11:58:00,SystemResetWarning,0821.3,5.00,000.00,021.5,020.5,000.0,029.9,022.7,11.2,0000.0,0004.72,0001.77,0001.17
2023-12-08 11:59:00,SystemResetWarning,0821.4,5.00,000.00,021.5,020.4,000.0,029.9,022.6,11.6,0000.0,0004.12,0001.75,0001.16
